GW4712 Weather Reports


time (UTC)temp
C
wind
direction
speed
KPH
gust
KPH
rain 1hr
cm
rain 24hr
cm
rain mn
cm
humidity
%
barometer
mb
20260903045146 22 163 0.0 0.0 0.00 0.00 0.00 99 1017.5
20260903044642 22 163 0.0 0.0 0.00 0.00 0.00 99 1017.7
20260903044137 22 163 0.0 0.0 0.00 0.00 0.00 99 1017.6
20260903043634 22 163 0.0 0.0 0.00 0.00 0.00 99 1017.7
20260903043132 22 163 0.0 0.0 0.00 0.00 0.00 99 1017.9
20260903042632 22 163 0.0 0.0 0.00 0.00 0.00 99 1017.7
20260903042127 22 163 0.0 0.0 0.00 0.00 0.00 99 1017.6
20260903041624 22 163 0.0 0.0 0.00 0.00 0.00 99 1017.8
20260903041120 22 163 0.0 0.0 0.00 0.00 0.00 99 1017.5
20260903040618 22 163 0.0 0.0 0.00 0.00 0.00 99 1017.6
20260903040115 22 163 0.0 0.0 0.00 0.00 0.00 99 1017.7
20260903035610 22 163 0.0 0.0 0.00 0.00 0.00 99 1017.6
20260903035106 22 163 0.0 0.0 0.00 0.00 0.00 99 1018.0
20260903034600 22 163 0.0 0.0 0.00 0.00 0.00 99 1017.9
20260903034055 22 163 0.0 0.0 0.00 0.00 0.00 99 1018.0
20260903033551 22 163 0.0 0.0 0.00 0.00 0.00 99 1017.9
20260903033046 22 163 0.0 0.0 0.00 0.00 0.00 99 1018.0
20260903032541 22 163 0.0 0.0 0.00 0.00 0.00 99 1018.1
20260903032036 22 163 0.0 0.0 0.00 0.00 0.00 99 1017.8
20260903031536 22 163 0.0 0.0 0.00 0.00 0.00 99 1017.9
20260903031031 22 163 0.0 0.0 0.00 0.00 0.00 99 1018.1
20260903030527 22 163 0.0 0.0 0.00 0.00 0.00 99 1018.0
20260903030023 22 163 0.0 0.0 0.00 0.00 0.00 99 1018.2
20260903025518 22 163 0.0 0.0 0.00 0.00 0.00 99 1018.2
20260903025014 23 163 0.0 0.0 0.00 0.00 0.00 99 1018.3
20260903024513 23 163 0.0 0.0 0.00 0.00 0.00 99 1018.3
20260903024007 23 163 0.0 0.0 0.00 0.00 0.00 99 1018.3
20260903023503 23 163 0.0 0.0 0.00 0.00 0.00 99 1018.4
20260903022958 23 163 0.0 0.0 0.00 0.00 0.00 99 1018.2
20260903022457 23 163 0.0 0.0 0.00 0.00 0.00 99 1018.5
20260903021955 23 163 0.0 0.0 0.00 0.00 0.00 99 1018.3
20260903021451 23 163 0.0 0.0 0.00 0.00 0.00 99 1018.2
20260903020946 23 163 0.0 0.0 0.00 0.00 0.00 99 1018.3
20260903020442 23 163 0.0 0.0 0.00 0.00 0.00 99 1018.3
20260903015936 23 163 0.0 0.0 0.00 0.00 0.00 99 1018.3
20260903015432 23 163 0.0 0.0 0.00 0.00 0.00 99 1018.4
20260903014926 23 163 0.0 0.0 0.00 0.00 0.00 99 1018.2
20260903014426 23 163 0.0 0.0 0.00 0.00 0.00 99 1018.4
20260903013921 23 163 0.0 0.0 0.00 0.00 0.00 98 1018.5
20260903013421 23 163 0.0 0.0 0.00 0.00 0.00 98 1018.4
20260903012920 23 163 0.0 0.0 0.00 0.00 0.00 98 1018.3
20260903012420 23 163 0.0 0.0 0.00 0.00 0.00 98 1018.3
20260903011919 23 163 0.0 0.0 0.00 0.00 0.00 98 1018.3
20260903011414 23 163 0.0 0.0 0.00 0.00 0.00 98 1018.2
20260903010909 23 163 0.0 0.0 0.00 0.00 0.00 98 1018.0
20260903010404 23 163 0.0 0.0 0.00 0.00 0.00 98 1018.1
20260903005902 23 163 0.0 0.0 0.00 0.00 0.00 98 1018.0
20260903005358 24 163 0.0 0.0 0.00 0.00 0.00 98 1018.0
20260903004854 24 163 0.0 0.0 0.00 0.00 0.00 98 1017.8
20260903004349 24 163 0.0 0.0 0.00 0.00 0.00 97 1017.9
20260903003844 24 163 0.0 0.0 0.00 0.00 0.00 97 1017.9
20260903003344 24 163 0.0 0.0 0.00 0.00 0.00 97 1017.9
20260903002844 25 163 0.0 0.0 0.00 0.00 0.00 96 1017.8
20260903002339 25 163 0.0 0.0 0.00 0.00 0.00 96 1018.0
20260903001834 25 163 0.0 0.0 0.00 0.00 0.00 96 1017.9
20260903001329 25 163 0.0 0.0 0.00 0.00 0.00 96 1017.6
20260903000829 25 163 0.0 0.0 0.00 0.00 0.00 96 1017.6
20260903000318 25 163 0.0 0.0 0.00 0.00 0.00 95 1017.7
20260902235816 25 163 0.0 0.0 0.00 0.00 0.00 95 1017.7
20260902235312 26 163 0.0 0.0 0.00 0.00 0.00 94 1017.6
20260902234806 26 163 0.0 0.0 0.00 0.00 0.00 94 1017.7
20260902234306 26 163 0.0 0.0 0.00 0.00 0.00 93 1017.5
20260902233805 26 163 0.0 0.0 0.00 0.00 0.00 92 1017.5
20260902233304 27 163 0.0 0.0 0.00 0.00 0.00 91 1017.4
20260902232803 27 163 0.0 0.0 0.00 0.00 0.00 91 1017.6
20260902232306 27 163 0.0 0.0 0.00 0.00 0.00 90 1017.6
20260902231803 27 163 0.0 0.0 0.00 0.00 0.00 90 1017.5
20260902231258 27 163 0.0 0.0 0.00 0.00 0.00 88 1017.4
20260902230753 28 167 0.0 0.0 0.00 0.00 0.00 87 1017.5
20260902230252 28 169 0.0 0.0 0.00 0.00 0.00 85 1017.7
20260902225747 28 179 0.0 0.0 0.00 0.00 0.00 84 1017.6
20260902225242 29 179 0.0 0.0 0.00 0.00 0.00 83 1017.6
20260902224740 30 179 0.0 0.0 0.00 0.00 0.00 82 1017.6
20260902224236 30 179 0.0 0.0 0.00 0.00 0.00 78 1017.6
20260902223732 31 255 0.0 0.0 0.00 0.00 0.00 77 1017.7
20260902223231 31 256 0.0 0.0 0.00 0.00 0.00 78 1017.5
20260902222730 31 256 0.0 0.0 0.00 0.00 0.00 72 1017.6
20260902222224 31 252 0.0 0.0 0.00 0.00 0.00 73 1017.6
20260902221719 32 252 0.0 0.0 0.00 0.00 0.00 72 1017.8
20260902221213 32 239 0.0 0.0 0.00 0.00 0.00 67 1017.6
20260902220709 32 246 0.0 0.0 0.00 0.00 0.00 66 1017.7
20260902220208 32 246 0.0 0.0 0.00 0.00 0.00 70 1017.6
20260902215704 32 241 0.0 0.0 0.00 0.00 0.00 65 1017.6
20260902215200 32 221 0.0 0.0 0.00 0.00 0.00 68 1017.7
20260902214654 32 241 0.0 0.0 0.00 0.00 0.00 66 1018.0
20260902214153 32 258 0.0 0.0 0.00 0.00 0.00 66 1017.5
20260902213649 32 270 0.0 0.0 0.00 0.00 0.00 65 1017.8
20260902213148 32 241 0.0 0.0 0.00 0.00 0.00 65 1017.6
20260902212644 32 178 0.0 0.0 0.00 0.00 0.00 65 1017.8
20260902212140 33 266 0.0 0.0 0.00 0.00 0.00 64 1017.7
20260902211637 32 273 0.0 0.0 0.00 0.00 0.00 64 1017.7
20260902211136 32 301 0.0 0.0 0.00 0.00 0.00 62 1017.8
20260902210636 32 252 0.0 0.0 0.00 0.00 0.00 63 1017.8
20260902210131 33 249 0.0 0.0 0.00 0.00 0.00 64 1017.8
20260902205630 32 277 0.0 0.0 0.00 0.00 0.00 65 1017.9
20260902205126 33 250 0.0 0.0 0.00 0.00 0.00 62 1017.7
20260902204626 32 251 0.0 0.0 0.00 0.00 0.00 63 1017.8
20260902204120 32 302 0.0 0.0 0.00 0.00 0.00 63 1018.0
20260902203616 32 253 0.0 0.0 0.00 0.00 0.00 62 1018.1
20260902203115 32 308 0.0 0.0 0.00 0.00 0.00 64 1018.2
20260902202611 33 234 0.0 0.0 0.00 0.00 0.00 60 1018.3
20260902202108 32 272 0.0 0.0 0.00 0.00 0.00 63 1018.3
20260902201603 32 239 0.0 0.0 0.00 0.00 0.00 63 1018.3
20260902201102 32 236 0.0 0.0 0.00 0.00 0.00 64 1018.4
20260902200557 33 241 0.0 0.0 0.00 0.00 0.00 61 1018.3
20260902200054 32 154 0.0 0.0 0.00 0.00 0.00 63 1018.4
20260902195549 33 295 0.0 0.0 0.00 0.00 0.00 62 1018.3
20260902195048 32 241 0.0 0.0 0.00 0.00 0.00 65 1018.6
20260902194548 32 190 0.0 0.0 0.00 0.00 0.00 64 1018.5
20260902194043 33 266 0.0 1.6 0.00 0.00 0.00 64 1018.3
20260902193539 33 257 0.0 6.4 0.00 0.00 0.00 62 1018.8
20260902193038 32 255 0.0 1.6 0.00 0.00 0.00 63 1018.6
20260902192537 32 282 0.0 0.0 0.00 0.00 0.00 66 1018.6
20260902192036 32 302 0.0 0.0 0.00 0.00 0.00 67 1018.8
20260902191532 32 249 0.0 0.0 0.00 0.00 0.00 63 1018.9
20260902191026 32 227 0.0 1.6 0.00 0.00 0.00 63 1018.9
20260902190522 32 287 0.0 0.0 0.00 0.00 0.00 64 1019.1
20260902190017 32 258 0.0 0.0 0.00 0.00 0.00 66 1019.1
20260902185513 32 311 0.0 0.0 0.00 0.00 0.00 66 1018.9
20260902185009 32 254 0.0 0.0 0.00 0.00 0.00 65 1018.9
20260902184503 32 251 0.0 0.0 0.00 0.00 0.00 65 1019.3
20260902183958 32 294 0.0 0.0 0.00 0.00 0.00 68 1019.1
20260902183455 32 293 0.0 0.0 0.00 0.00 0.00 66 1019.2
20260902182951 32 300 0.0 0.0 0.00 0.00 0.00 67 1019.2
20260902182447 32 262 0.0 1.6 0.00 0.00 0.00 66 1019.3
20260902181943 32 159 0.0 0.0 0.00 0.00 0.00 65 1019.2
20260902181438 32 278 0.0 0.0 0.00 0.00 0.00 66 1019.3
20260902180932 32 303 0.0 1.6 0.00 0.00 0.00 66 1019.2
20260902180428 32 249 0.0 0.0 0.00 0.00 0.00 66 1019.3
20260902175923 32 237 0.0 0.0 0.00 0.00 0.00 67 1019.3
20260902175418 32 179 0.0 0.0 0.00 0.00 0.00 69 1019.4
20260902174914 32 244 0.0 0.0 0.00 0.00 0.00 68 1019.4
20260902174411 32 303 0.0 0.0 0.00 0.00 0.00 68 1019.3
20260902173907 32 285 0.0 0.0 0.00 0.00 0.00 69 1019.2
20260902173406 32 300 0.0 1.6 0.00 0.00 0.00 70 1019.4
20260902172901 31 270 0.0 0.0 0.00 0.00 0.00 67 1019.6
20260902172400 32 277 0.0 1.6 0.00 0.00 0.00 66 1019.4
20260902171855 31 313 0.0 0.0 0.00 0.00 0.00 68 1019.7
20260902171350 32 242 0.0 0.0 0.00 0.00 0.00 69 1019.5
20260902170846 31 287 0.0 0.0 0.00 0.00 0.00 70 1019.7
20260902170342 31 312 0.0 0.0 0.00 0.00 0.00 69 1019.8
20260902165838 31 274 0.0 0.0 0.00 0.00 0.00 67 1020.0
20260902165336 31 162 0.0 0.0 0.00 0.00 0.00 69 1020.0
20260902164832 31 295 0.0 0.0 0.00 0.00 0.00 69 1020.2
20260902164326 31 240 0.0 0.0 0.00 0.00 0.00 68 1020.2
20260902163825 31 245 0.0 0.0 0.00 0.00 0.00 74 1020.4
20260902163325 31 290 0.0 0.0 0.00 0.00 0.00 70 1020.2
20260902162824 31 248 0.0 0.0 0.00 0.00 0.00 71 1020.2
20260902162319 31 240 0.0 0.0 0.00 0.00 0.00 70 1020.6
20260902161814 30 300 0.0 1.6 0.00 0.00 0.00 72 1020.5
20260902161310 30 291 0.0 0.0 0.00 0.00 0.00 75 1020.4
20260902160805 30 231 0.0 0.0 0.00 0.00 0.00 71 1020.6
20260902160301 30 303 1.6 3.2 0.00 0.00 0.00 72 1020.4
20260902155758 30 283 0.0 1.6 0.00 0.00 0.00 74 1020.6
20260902155257 30 274 0.0 0.0 0.00 0.00 0.00 75 1020.5
20260902154753 30 240 0.0 0.0 0.00 0.00 0.00 76 1020.6
20260902154249 30 186 0.0 0.0 0.00 0.00 0.00 77 1020.7
20260902153747 30 236 0.0 0.0 0.00 0.00 0.00 75 1020.8
20260902153241 30 215 0.0 0.0 0.00 0.00 0.00 77 1020.8
20260902152732 29 164 0.0 0.0 0.00 0.00 0.00 78 1020.7
20260902152227 29 182 0.0 0.0 0.00 0.00 0.00 78 1020.5
20260902151722 29 195 0.0 0.0 0.00 0.00 0.00 78 1020.7
20260902151217 29 239 0.0 0.0 0.00 0.00 0.00 79 1020.6
20260902150717 29 162 0.0 0.0 0.00 0.00 0.00 78 1020.6
20260902150214 29 170 0.0 0.0 0.00 0.00 0.00 79 1020.8
20260902145712 28 190 0.0 0.0 0.00 0.00 0.00 80 1020.8
20260902145213 28 228 0.0 0.0 0.00 0.00 0.00 82 1020.8
20260902144709 28 237 0.0 0.0 0.00 0.00 0.00 81 1020.9
20260902144204 28 238 0.0 0.0 0.00 0.00 0.00 81 1020.9
20260902143659 28 226 0.0 0.0 0.00 0.00 0.00 82 1020.8
20260902143154 27 176 0.0 0.0 0.00 0.00 0.00 83 1020.9
20260902142650 27 185 0.0 0.0 0.00 0.00 0.00 82 1020.7
20260902142146 27 177 0.0 0.0 0.00 0.00 0.00 82 1020.5
20260902141645 27 160 0.0 0.0 0.00 0.00 0.00 84 1020.5
20260902141141 27 164 0.0 0.0 0.00 0.00 0.00 85 1020.5
20260902140636 27 164 0.0 0.0 0.00 0.00 0.00 85 1020.5
20260902140131 26 160 0.0 0.0 0.00 0.00 0.00 86 1020.5
20260902135630 26 188 0.0 0.0 0.00 0.00 0.00 86 1020.3
20260902135126 26 244 0.0 0.0 0.00 0.00 0.00 86 1020.6
20260902134621 26 186 0.0 0.0 0.00 0.00 0.00 87 1020.4
20260902134116 26 214 0.0 0.0 0.00 0.00 0.00 88 1020.4
20260902133616 26 214 0.0 0.0 0.00 0.00 0.00 92 1020.4
20260902133111 25 214 0.0 0.0 0.00 0.00 0.00 92 1020.4
20260902132606 25 214 0.0 0.0 0.00 0.00 0.00 95 1020.1
20260902132102 25 214 0.0 0.0 0.00 0.00 0.00 97 1020.3
20260902131557 25 214 0.0 0.0 0.00 0.00 0.00 96 1020.4
20260902131051 24 214 0.0 0.0 0.00 0.00 0.00 98 1020.4
20260902130547 23 214 0.0 0.0 0.00 0.00 0.00 98 1020.3
20260902130042 23 214 0.0 0.0 0.00 0.00 0.00 99 1020.6
20260902125538 23 214 0.0 0.0 0.00 0.00 0.00 99 1020.3
20260902125033 22 214 0.0 0.0 0.00 0.00 0.00 99 1020.4
20260902124530 22 214 0.0 0.0 0.00 0.00 0.00 99 1020.1
20260902124024 22 214 0.0 0.0 0.00 0.00 0.00 99 1020.3
20260902123520 22 214 0.0 0.0 0.00 0.00 0.00 99 1020.2
20260902123020 21 215 0.0 0.0 0.00 0.00 0.00 99 1019.9
20260902122514 21 215 0.0 0.0 0.00 0.00 0.00 99 1020.2
20260902122010 21 215 0.0 0.0 0.00 0.00 0.00 99 1020.2
20260902121505 21 215 0.0 0.0 0.00 0.00 0.00 99 1020.2
20260902121000 21 215 0.0 0.0 0.00 0.00 0.00 99 1020.1
20260902120457 21 214 0.0 0.0 0.00 0.00 0.00 99 1020.0
20260902115956 20 215 0.0 0.0 0.00 0.00 0.00 99 1020.1
20260902115452 20 214 0.0 0.0 0.00 0.00 0.00 99 1020.1
20260902114949 20 215 0.0 0.0 0.00 0.00 0.00 99 1019.9
20260902114444 20 215 0.0 0.0 0.00 0.00 0.00 99 1020.0
20260902113938 20 214 0.0 0.0 0.00 0.00 0.00 99 1020.1
20260902113434 20 214 0.0 0.0 0.00 0.00 0.00 99 1019.9
20260902112933 20 214 0.0 0.0 0.00 0.00 0.00 99 1020.0
20260902112429 20 214 0.0 0.0 0.00 0.00 0.00 99 1020.0
20260902111925 20 214 0.0 0.0 0.00 0.00 0.00 99 1019.9
20260902111422 20 215 0.0 0.0 0.00 0.00 0.00 99 1019.8
20260902110918 20 214 0.0 0.0 0.00 0.00 0.00 99 1020.0
20260902110413 20 214 0.0 0.0 0.00 0.00 0.00 99 1020.0
20260902105913 20 214 0.0 0.0 0.00 0.00 0.00 99 1019.8
20260902105408 20 214 0.0 0.0 0.00 0.00 0.00 99 1019.8
20260902104903 20 214 0.0 0.0 0.00 0.00 0.00 99 1019.9
20260902104359 20 214 0.0 0.0 0.00 0.00 0.00 99 1020.0
20260902103853 20 214 0.0 0.0 0.00 0.00 0.00 99 1019.9
20260902103348 20 214 0.0 0.0 0.00 0.00 0.00 99 1020.1
20260902102843 20 215 0.0 0.0 0.00 0.00 0.00 99 1020.1
20260902102341 20 214 0.0 0.0 0.00 0.00 0.00 99 1020.2
20260902101836 20 214 0.0 0.0 0.00 0.00 0.00 99 1020.0
20260902101330 20 214 0.0 0.0 0.00 0.00 0.00 99 1019.9
20260902100825 20 214 0.0 0.0 0.00 0.00 0.00 99 1019.9
20260902100324 20 214 0.0 0.0 0.00 0.00 0.00 99 1020.0
20260902095820 20 214 0.0 0.0 0.00 0.00 0.00 99 1020.0
20260902095319 20 214 0.0 0.0 0.00 0.00 0.00 99 1019.8
20260902094814 20 215 0.0 0.0 0.00 0.00 0.00 99 1020.0
20260902094310 20 214 0.0 0.0 0.00 0.00 0.00 99 1019.8
20260902093809 20 214 0.0 0.0 0.00 0.00 0.00 99 1019.9
20260902093304 20 214 0.0 0.0 0.00 0.00 0.00 99 1020.0
20260902092804 20 214 0.0 0.0 0.00 0.00 0.00 99 1019.8
20260902092259 20 215 0.0 0.0 0.00 0.00 0.00 99 1019.9
20260902091758 20 214 0.0 0.0 0.00 0.00 0.00 99 1019.8
20260902091255 20 214 0.0 0.0 0.00 0.00 0.00 99 1019.7
20260902090746 20 214 0.0 0.0 0.00 0.00 0.00 99 1019.8
20260902090245 20 214 0.0 0.0 0.00 0.00 0.00 99 1019.4
20260902085745 20 214 0.0 0.0 0.00 0.00 0.00 99 1019.6
20260902085240 20 214 0.0 0.0 0.00 0.00 0.00 99 1019.6
20260902084736 20 214 0.0 0.0 0.00 0.00 0.00 99 1019.6
20260902084232 20 214 0.0 0.0 0.00 0.00 0.00 99 1019.5
20260902083731 20 214 0.0 0.0 0.00 0.00 0.00 99 1019.7
20260902083226 20 214 0.0 0.0 0.00 0.00 0.00 99 1019.5
20260902082721 20 214 0.0 0.0 0.00 0.00 0.00 99 1019.5
20260902082218 20 214 0.0 0.0 0.00 0.00 0.00 99 1019.3
20260902081714 20 214 0.0 0.0 0.00 0.00 0.00 99 1019.2
20260902081215 20 214 0.0 0.0 0.00 0.00 0.00 99 1019.4
20260902080709 20 214 0.0 0.0 0.00 0.00 0.00 99 1019.5
20260902080206 20 214 0.0 0.0 0.00 0.00 0.00 99 1019.4
20260902075701 20 214 0.0 0.0 0.00 0.00 0.00 99 1019.3
20260902075156 20 214 0.0 0.0 0.00 0.00 0.00 99 1019.3
20260902074656 20 214 0.0 0.0 0.00 0.00 0.00 99 1019.4
20260902074151 20 214 0.0 0.0 0.00 0.00 0.00 99 1019.4
20260902073647 20 214 0.0 0.0 0.00 0.00 0.00 99 1019.4
20260902073143 20 214 0.0 0.0 0.00 0.00 0.00 99 1019.5
20260902072639 20 214 0.0 0.0 0.00 0.00 0.00 99 1019.4
20260902072135 21 214 0.0 0.0 0.00 0.00 0.00 99 1019.5
20260902071630 20 214 0.0 0.0 0.00 0.00 0.00 99 1019.4
20260902071126 20 214 0.0 0.0 0.00 0.00 0.00 99 1019.4
20260902070621 21 214 0.0 0.0 0.00 0.00 0.00 99 1019.4
20260902070116 21 214 0.0 0.0 0.00 0.00 0.00 99 1019.3
20260902065615 21 214 0.0 0.0 0.00 0.00 0.00 99 1019.2
20260902065111 21 214 0.0 0.0 0.00 0.00 0.00 99 1019.2
20260902064607 21 214 0.0 0.0 0.00 0.00 0.00 99 1019.3
20260902064102 21 214 0.0 0.0 0.00 0.00 0.00 99 1019.3
20260902063601 21 214 0.0 0.0 0.00 0.00 0.00 99 1019.3
20260902063056 21 215 0.0 0.0 0.00 0.00 0.00 99 1019.4
20260902062556 21 215 0.0 0.0 0.00 0.00 0.00 99 1019.4
20260902062052 21 214 0.0 0.0 0.00 0.00 0.00 99 1019.3
20260902061551 21 214 0.0 0.0 0.00 0.00 0.00 99 1019.3
20260902061047 21 215 0.0 0.0 0.00 0.00 0.00 99 1019.4
20260902060543 21 214 0.0 0.0 0.00 0.00 0.00 99 1019.2
20260902060039 21 215 0.0 0.0 0.00 0.00 0.00 99 1019.4
20260902055535 21 215 0.0 0.0 0.00 0.00 0.00 99 1019.2
20260902055030 21 215 0.0 0.0 0.00 0.00 0.00 99 1019.5
20260902054525 21 215 0.0 0.0 0.00 0.00 0.00 99 1019.3
20260902054021 21 215 0.0 0.0 0.00 0.00 0.00 99 1019.2
20260902053516 21 215 0.0 0.0 0.00 0.00 0.00 99 1019.2
20260902053015 21 215 0.0 0.0 0.00 0.00 0.00 99 1019.4
20260902052510 21 215 0.0 0.0 0.00 0.00 0.00 99 1019.1
20260902052005 21 215 0.0 0.0 0.00 0.00 0.00 99 1019.2
20260902051500 21 215 0.0 0.0 0.00 0.00 0.00 99 1019.1
20260902050958 21 215 0.0 0.0 0.00 0.00 0.00 99 1019.1
20260902050453 21 215 0.0 0.0 0.00 0.00 0.00 99 1018.9
20260902045948 21 215 0.0 0.0 0.00 0.00 0.00 99 1018.8